Time,TemperatureF,DewpointF,PressureIn,WindDirection,WindDirectionDegrees,WindSpeedMPH,WindSpeedGustMPH,Humidity,HourlyPrecipIn,Conditions,Clouds,dailyrainin,SoftwareType,DateUTC
2014-04-16 00:01:00,30.7,26.8,29.80,SSW,202,0.0,0.0,85,0.00,RA,,0.00,WeatherDisplay:10.37,2014-04-16 04:01:00,
2014-04-16 00:02:00,30.7,26.8,29.80,SSW,202,0.0,0.0,85,0.00,RA,,0.00,WeatherDisplay:10.37,2014-04-16 04:02:00,
2014-04-16 00:07:00,30.7,26.8,29.80,SSW,202,0.0,0.0,85,0.00,RA,,0.00,WeatherDisplay:10.37,2014-04-16 04:07:00,
2014-04-16 00:12:00,30.7,27.0,29.80,SSW,202,0.0,0.0,86,0.00,,,0.00,WeatherDisplay:10.37,2014-04-16 04:12:00,
2014-04-16 00:17:00,30.7,27.0,29.80,SSW,202,0.0,0.0,86,0.00,,,0.00,WeatherDisplay:10.37,2014-04-16 04:17:00,
2014-04-16 00:22:00,30.7,26.8,29.78,SSW,202,2.8,11.5,85,0.00,,,0.00,WeatherDisplay:10.37,2014-04-16 04:22:00,
2014-04-16 00:27:00,30.7,26.5,29.80,SSW,202,0.0,1.2,84,0.00,,,0.00,WeatherDisplay:10.37,2014-04-16 04:27:00,
2014-04-16 00:32:00,30.7,26.5,29.81,SSW,202,4.6,8.7,84,0.00,,,0.00,WeatherDisplay:10.37,2014-04-16 04:32:00,
2014-04-16 00:37:00,30.7,26.5,29.81,SSW,202,0.5,4.6,84,0.00,,,0.00,WeatherDisplay:10.37,2014-04-16 04:37:00,
2014-04-16 00:42:00,30.7,26.5,29.81,SSW,202,0.7,3.6,84,0.00,,,0.00,WeatherDisplay:10.37,2014-04-16 04:42:00,
2014-04-16 00:47:00,30.7,26.5,29.81,SSW,202,0.0,0.0,84,0.00,,,0.00,WeatherDisplay:10.37,2014-04-16 04:47:00,
2014-04-16 00:52:00,30.7,26.5,29.81,SSW,202,1.2,2.3,84,0.00,,,0.00,WeatherDisplay:10.37,2014-04-16 04:52:00,
2014-04-16 00:57:00,30.7,26.2,29.82,SSW,202,1.2,3.5,83,0.00,,,0.00,WeatherDisplay:10.37,2014-04-16 04:57:00,
2014-04-16 01:02:00,30.7,26.2,29.82,SSW,202,0.0,0.0,83,0.00,,,0.00,WeatherDisplay:10.37,2014-04-16 05:02:00,
2014-04-16 01:07:00,30.7,26.2,29.82,SSW,202,0.0,2.7,83,0.00,,,0.00,WeatherDisplay:10.37,2014-04-16 05:07:00,
2014-04-16 01:12:00,30.7,26.2,29.82,SSW,202,3.6,8.1,83,0.00,,,0.00,WeatherDisplay:10.37,2014-04-16 05:12:00,
2014-04-16 01:17:00,30.7,25.9,29.82,SW,225,4.2,9.2,82,0.00,,,0.00,WeatherDisplay:10.37,2014-04-16 05:17:00,
2014-04-16 01:22:00,30.7,25.9,29.83,SSW,202,0.0,2.3,82,0.00,,,0.00,WeatherDisplay:10.37,2014-04-16 05:22:00,
2014-04-16 01:27:00,30.7,25.9,29.82,SSW,202,0.2,0.0,82,0.00,,,0.00,WeatherDisplay:10.37,2014-04-16 05:27:00,
2014-04-16 01:32:00,30.7,25.9,29.83,SSW,202,0.3,1.2,82,0.00,,,0.00,WeatherDisplay:10.37,2014-04-16 05:32:00,
2014-04-16 01:37:00,30.6,25.7,29.83,SSW,202,0.0,2.3,82,0.00,,,0.00,WeatherDisplay:10.37,2014-04-16 05:37:00,
2014-04-16 01:42:00,30.6,25.4,29.83,NE,45,3.7,7.2,81,0.00,,,0.00,WeatherDisplay:10.37,2014-04-16 05:42:00,
2014-04-16 01:47:00,30.6,25.4,29.84,NE,45,0.7,3.5,81,0.00,,,0.00,WeatherDisplay:10.37,2014-04-16 05:47:00,
2014-04-16 01:52:00,30.4,25.2,29.83,NE,45,0.0,0.0,81,0.00,,,0.00,WeatherDisplay:10.37,2014-04-16 05:52:00,
2014-04-16 01:57:00,30.4,25.5,29.85,NE,45,3.7,6.9,82,0.00,,,0.00,WeatherDisplay:10.37,2014-04-16 05:57:00,
2014-04-16 02:02:00,30.2,25.4,29.85,NW,315,1.2,0.0,82,0.00,,,0.00,WeatherDisplay:10.37,2014-04-16 06:02:00,
2014-04-16 02:07:00,30.0,25.2,29.85,ENE,68,4.2,5.8,82,0.00,,,0.00,WeatherDisplay:10.37,2014-04-16 06:07:00,
2014-04-16 02:12:00,30.0,24.9,29.85,East,90,0.1,2.9,81,0.00,,,0.00,WeatherDisplay:10.37,2014-04-16 06:12:00,
2014-04-16 02:17:00,29.8,24.7,29.87,NNW,338,2.3,5.8,81,0.00,,,0.00,WeatherDisplay:10.37,2014-04-16 06:17:00,
2014-04-16 02:22:00,29.5,24.1,29.87,East,90,2.6,4.6,80,0.00,,,0.00,WeatherDisplay:10.37,2014-04-16 06:22:00,
2014-04-16 02:27:00,29.5,23.8,29.87,NE,45,1.3,3.5,79,0.00,,,0.00,WeatherDisplay:10.37,2014-04-16 06:27:00,
2014-04-16 02:32:00,29.3,23.9,29.88,East,90,0.8,2.3,80,0.00,,,0.00,WeatherDisplay:10.37,2014-04-16 06:32:00,
2014-04-16 02:37:00,29.1,23.4,29.87,NE,45,3.7,5.8,79,0.00,,,0.00,WeatherDisplay:10.37,2014-04-16 06:37:00,
2014-04-16 02:42:00,28.9,23.2,29.87,ENE,68,6.3,6.9,79,0.00,,,0.00,WeatherDisplay:10.37,2014-04-16 06:42:00,
2014-04-16 02:47:00,28.6,22.9,29.88,ESE,112,0.3,1.2,79,0.00,,,0.00,WeatherDisplay:10.37,2014-04-16 06:47:00,
2014-04-16 02:52:00,28.6,23.2,29.90,NW,315,0.1,2.3,80,0.00,,,0.00,WeatherDisplay:10.37,2014-04-16 06:52:00,
2014-04-16 02:57:00,28.2,22.8,29.89,ENE,68,1.0,4.0,80,0.00,,,0.00,WeatherDisplay:10.37,2014-04-16 06:57:00,
2014-04-16 03:02:00,28.2,22.8,29.91,NNE,22,0.0,0.0,80,0.00,,,0.00,WeatherDisplay:10.37,2014-04-16 07:02:00,
2014-04-16 03:07:00,28.2,22.8,29.90,ENE,68,1.8,4.6,80,0.00,,,0.00,WeatherDisplay:10.37,2014-04-16 07:07:00,
2014-04-16 03:12:00,28.0,22.4,29.88,NE,45,4.6,8.7,79,0.00,,,0.00,WeatherDisplay:10.37,2014-04-16 07:12:00,
2014-04-16 03:17:00,28.0,22.4,29.89,NNE,22,0.0,2.3,79,0.00,,,0.00,WeatherDisplay:10.37,2014-04-16 07:17:00,
2014-04-16 03:22:00,27.9,22.2,29.88,NNE,22,0.0,0.0,79,0.00,,,0.00,WeatherDisplay:10.37,2014-04-16 07:22:00,
2014-04-16 03:27:00,27.7,22.0,29.89,ENE,68,0.0,3.5,79,0.00,,,0.00,WeatherDisplay:10.37,2014-04-16 07:27:00,
2014-04-16 03:32:00,27.7,22.0,29.90,NE,45,2.2,3.5,79,0.00,,,0.00,WeatherDisplay:10.37,2014-04-16 07:32:00,
2014-04-16 03:37:00,27.5,21.8,29.91,ENE,68,4.4,8.1,79,0.00,,,0.00,WeatherDisplay:10.37,2014-04-16 07:37:00,
2014-04-16 03:42:00,27.5,21.8,29.91,SSE,158,0.0,6.9,79,0.00,,,0.00,WeatherDisplay:10.37,2014-04-16 07:42:00,
2014-04-16 03:47:00,27.3,21.7,29.90,ENE,68,1.9,4.6,79,0.00,,,0.00,WeatherDisplay:10.37,2014-04-16 07:47:00,
2014-04-16 03:52:00,27.3,21.7,29.91,NE,45,5.6,10.4,79,0.00,,,0.00,WeatherDisplay:10.37,2014-04-16 07:52:00,
2014-04-16 03:57:00,27.1,21.2,29.90,NE,45,0.0,0.0,78,0.00,,,0.00,WeatherDisplay:10.37,2014-04-16 07:57:00,
2014-04-16 04:02:00,27.1,21.5,29.91,NE,45,0.8,0.0,79,0.00,,,0.00,WeatherDisplay:10.37,2014-04-16 08:02:00,
2014-04-16 04:07:00,27.1,21.5,29.91,NE,45,6.4,12.7,79,0.00,,,0.00,WeatherDisplay:10.37,2014-04-16 08:07:00,
2014-04-16 04:12:00,27.0,21.3,29.91,NNE,24,0.0,0.0,79,0.00,,,0.00,WeatherDisplay:10.37,2014-04-16 08:12:00,
2014-04-16 04:17:00,26.8,20.8,29.91,NNE,22,6.8,16.1,78,0.00,,,0.00,WeatherDisplay:10.37,2014-04-16 08:17:00,
2014-04-16 04:22:00,26.6,20.4,29.93,NE,45,4.4,10.4,77,0.00,,,0.00,WeatherDisplay:10.37,2014-04-16 08:22:00,
2014-04-16 04:27:00,26.4,19.9,29.91,NNE,22,5.3,9.2,76,0.00,,,0.00,WeatherDisplay:10.37,2014-04-16 08:27:00,
2014-04-16 04:32:00,26.2,19.1,29.89,NW,315,4.6,12.7,74,0.00,,,0.00,WeatherDisplay:10.37,2014-04-16 08:32:00,
2014-04-16 04:37:00,26.1,18.9,29.92,NNW,338,2.7,5.8,74,0.00,,,0.00,WeatherDisplay:10.37,2014-04-16 08:37:00,
2014-04-16 04:42:00,25.9,18.4,29.96,NW,315,7.3,17.3,73,0.00,,,0.00,WeatherDisplay:10.37,2014-04-16 08:42:00,
2014-04-16 04:47:00,25.5,17.7,29.98,NNW,338,8.7,16.1,72,0.00,,,0.00,WeatherDisplay:10.37,2014-04-16 08:47:00,
2014-04-16 04:52:00,25.5,17.4,29.99,NNE,22,5.9,13.8,71,0.00,,,0.00,WeatherDisplay:10.37,2014-04-16 08:52:00,
2014-04-16 04:57:00,25.3,17.2,30.00,North,0,0.9,3.5,71,0.00,,,0.00,WeatherDisplay:10.37,2014-04-16 08:57:00,
2014-04-16 05:02:00,25.3,17.2,30.01,NW,315,6.0,6.0,71,0.00,,,0.00,WeatherDisplay:10.37,2014-04-16 09:02:00,